,,PA_Meas_PMT16A,,PR_Meas_QMR101_102,,RH_Meas_QMH101,,SR_Meas_QMS101,,TA_Meas_QMH101,,GenWind,,GenWind,
time,status,PA,status,PR,status,RH,status,SR,status,TA,status,DirAvg,status,SpdAvg,
2014-07-29, 06:53:04,VALID,917.37,VALID,0,VALID,93.1276,VALID,48.7783,VALID,18.047,VALID,144,VALID,0.383203,
2014-07-29, 06:54:04,VALID,917.393,VALID,0,VALID,93.0057,VALID,49.7453,VALID,18.1264,VALID,144,VALID,0.539844,
2014-07-29, 06:55:04,VALID,917.369,VALID,0,VALID,92.7693,VALID,52.6462,VALID,18.164,VALID,144,VALID,0.25625,
2014-07-29, 06:56:04,VALID,917.423,VALID,0,VALID,92.472,VALID,57.2661,VALID,18.2433,VALID,144,VALID,0.346875,
2014-07-29, 06:57:04,VALID,917.436,VALID,0,VALID,92.19,VALID,59.5224,VALID,18.2809,VALID,144,VALID,0.621875,
2014-07-29, 06:58:04,VALID,917.445,VALID,0,VALID,91.8622,VALID,61.5638,VALID,18.3394,VALID,144,VALID,0.471875,
2014-07-29, 06:59:04,VALID,917.472,VALID,0,VALID,91.6487,VALID,61.7787,VALID,18.3979,VALID,144,VALID,0.20625,
2014-07-29, 07:00:04,VALID,917.505,VALID,0,VALID,91.2599,VALID,63.82,VALID,18.4564,VALID,144,VALID,0.349219,
2014-07-29, 07:01:04,VALID,917.504,VALID,0,VALID,90.8178,VALID,67.6879,VALID,18.5344,VALID,143,VALID,0.587109,
2014-07-29, 07:02:04,VALID,917.501,VALID,0,VALID,90.368,VALID,69.8367,VALID,18.5539,VALID,139,VALID,0.710938,
2014-07-29, 07:03:04,VALID,917.537,VALID,0,VALID,90.3146,VALID,71.7707,VALID,18.5929,VALID,139,VALID,0.619922,
2014-07-29, 07:04:04,VALID,917.522,VALID,0,VALID,90.4137,VALID,73.8121,VALID,18.5929,VALID,129,VALID,0.619922,
2014-07-29, 07:05:04,VALID,917.556,VALID,0,VALID,90.246,VALID,78.1097,VALID,18.6124,VALID,136,VALID,0.721875,
2014-07-29, 07:06:04,VALID,917.546,VALID,0,VALID,90.1545,VALID,81.4404,VALID,18.6513,VALID,135,VALID,0.828125,
2014-07-29, 07:07:04,VALID,917.531,VALID,0,VALID,90.2841,VALID,84.019,VALID,18.6499,VALID,127,VALID,0.537109,
2014-07-29, 07:08:04,VALID,917.52,VALID,0,VALID,89.9944,VALID,83.2669,VALID,18.6903,VALID,138,VALID,1.2375,
2014-07-29, 07:09:04,VALID,917.527,VALID,0,VALID,89.9106,VALID,86.3827,VALID,18.6903,VALID,136,VALID,0.998047,
2014-07-29, 07:10:04,VALID,917.548,VALID,0,VALID,89.6742,VALID,90.0357,VALID,18.7697,VALID,137,VALID,1.26914,
2014-07-29, 07:11:04,VALID,917.593,VALID,0,VALID,89.476,VALID,91.6473,VALID,18.7864,VALID,137,VALID,0.933594,
2014-07-29, 07:12:04,VALID,917.611,VALID,0,VALID,89.3464,VALID,99.2756,VALID,18.8254,VALID,137,VALID,1.09766,
2014-07-29, 07:13:04,VALID,917.605,VALID,0,VALID,89.0796,VALID,104.433,VALID,18.8853,VALID,139,VALID,1.03828,
2014-07-29, 07:14:04,VALID,917.599,VALID,0,VALID,89.2168,VALID,107.011,VALID,18.9229,VALID,139,VALID,0.657812,
2014-07-29, 07:15:04,VALID,917.603,VALID,0,VALID,89.0644,VALID,108.73,VALID,19.0008,VALID,138,VALID,0.754297,
2014-07-29, 07:16:04,VALID,917.6,VALID,0,VALID,88.6603,VALID,127.533,VALID,19.0398,VALID,142,VALID,1.04727,
2014-07-29, 07:17:04,VALID,917.609,VALID,0,VALID,88.6984,VALID,147.839,VALID,19.0788,VALID,144,VALID,0.890625,
2014-07-29, 07:18:04,VALID,917.593,VALID,0,VALID,88.3401,VALID,150.632,VALID,19.1373,VALID,149,VALID,1.21953,
2014-07-29, 07:19:04,VALID,917.588,VALID,0,VALID,88.1114,VALID,152.137,VALID,19.1973,VALID,148,VALID,0.984766,
2014-07-29, 07:20:04,VALID,917.579,VALID,0,VALID,87.3491,VALID,154.285,VALID,19.2558,VALID,150,VALID,1.73047,
2014-07-29, 07:21:04,VALID,917.563,VALID,0,VALID,87.4101,VALID,155.79,VALID,19.2948,VALID,154,VALID,1.03281,
2014-07-29, 07:22:04,VALID,917.555,VALID,0,VALID,87.2424,VALID,155.897,VALID,19.2933,VALID,138,VALID,1.35938,
2014-07-29, 07:23:04,VALID,917.56,VALID,0,VALID,87.25,VALID,155.575,VALID,19.3128,VALID,140,VALID,1.20977,
2014-07-29, 07:24:04,VALID,917.563,VALID,0,VALID,87.2652,VALID,159.228,VALID,19.3128,VALID,142,VALID,1.09414,
2014-07-29, 07:25:04,VALID,917.545,VALID,0,VALID,86.9374,VALID,162.988,VALID,19.3518,VALID,135,VALID,1.3125,
2014-07-29, 07:26:04,VALID,917.549,VALID,0,VALID,87.4406,VALID,169.65,VALID,19.3503,VALID,135,VALID,0.983203,
2014-07-29, 07:27:04,VALID,917.532,VALID,0,VALID,86.9832,VALID,176.311,VALID,19.4103,VALID,140,VALID,1.14766,
2014-07-29, 07:28:04,VALID,917.503,VALID,0,VALID,86.8155,VALID,181.898,VALID,19.4298,VALID,143,VALID,1.51641,
2014-07-29, 07:29:04,VALID,917.486,VALID,0,VALID,86.3581,VALID,186.196,VALID,19.4298,VALID,155,VALID,1.6543,
2014-07-29, 07:30:04,VALID,917.497,VALID,0,VALID,86.1522,VALID,188.559,VALID,19.4493,VALID,138,VALID,1.44336,
2014-07-29, 07:31:04,VALID,917.527,VALID,0,VALID,86.3123,VALID,189.849,VALID,19.4673,VALID,125,VALID,0.702344,
2014-07-29, 07:32:04,VALID,917.523,VALID,0,VALID,86.2285,VALID,186.518,VALID,19.5063,VALID,155,VALID,0.981641,
2014-07-29, 07:33:04,VALID,917.527,VALID,0,VALID,86.0684,VALID,187.485,VALID,19.5648,VALID,160,VALID,0.773828,
2014-07-29, 07:34:04,VALID,917.55,VALID,0,VALID,85.832,VALID,192.105,VALID,19.6458,VALID,138,VALID,1.24102,
2014-07-29, 07:35:04,VALID,917.531,VALID,0,VALID,85.7863,VALID,197.692,VALID,19.7238,VALID,144,VALID,1.1,
2014-07-29, 07:36:04,VALID,917.511,VALID,0,VALID,85.893,VALID,199.841,VALID,19.7613,VALID,124,VALID,1.46914,
2014-07-29, 07:37:04,VALID,917.514,VALID,0,VALID,85.4661,VALID,201.452,VALID,19.7808,VALID,139,VALID,1.07344,
2014-07-29, 07:38:04,VALID,917.522,VALID,0,VALID,85.0392,VALID,203.816,VALID,19.8198,VALID,145,VALID,1.41172,
2014-07-29, 07:39:04,VALID,917.522,VALID,0,VALID,84.963,VALID,203.816,VALID,19.8978,VALID,158,VALID,1.00039,
2014-07-29, 07:40:04,VALID,917.529,VALID,0,VALID,84.8867,VALID,198.981,VALID,19.9758,VALID,134,VALID,1.08242,
2014-07-29, 07:41:04,VALID,917.492,VALID,0,VALID,83.8576,VALID,131.508,VALID,20.0133,VALID,135,VALID,1.45625,
2014-07-29, 07:42:04,VALID,917.504,VALID,0,VALID,84.0482,VALID,77.2502,VALID,20.0148,VALID,144,VALID,1.2832,
2014-07-29, 07:43:04,VALID,917.479,VALID,0,VALID,84.5742,VALID,58.9852,VALID,19.9563,VALID,137,VALID,1.21367,
2014-07-29, 07:44:04,VALID,917.526,VALID,0,VALID,84.963,VALID,66.1837,VALID,19.8378,VALID,137,VALID,1.34414,
2014-07-29, 07:45:04,VALID,917.547,VALID,0,VALID,85.6186,VALID,91.6473,VALID,19.8003,VALID,123,VALID,1.08086,
2014-07-29, 07:46:04,VALID,917.576,VALID,0,VALID,86.198,VALID,140.533,VALID,19.7598,VALID,123,VALID,0.861328,
2014-07-29, 07:47:04,VALID,917.611,VALID,0,VALID,86.6782,VALID,138.169,VALID,19.7418,VALID,125,VALID,0.964063,
2014-07-29, 07:48:04,VALID,917.642,VALID,0,VALID,86.7621,VALID,157.401,VALID,19.7598,VALID,137,VALID,1.15898,
2014-07-29, 07:49:04,VALID,917.644,VALID,0,VALID,86.8917,VALID,181.898,VALID,19.8378,VALID,133,VALID,0.644531,
2014-07-29, 07:50:04,VALID,917.659,VALID,0,VALID,87.1433,VALID,208.758,VALID,19.9563,VALID,123,VALID,0.890234,
2014-07-29, 07:51:04,VALID,917.667,VALID,0,VALID,87.2805,VALID,214.882,VALID,20.0928,VALID,113,VALID,0.836719,
2014-07-29, 07:52:04,VALID,917.688,VALID,0,VALID,87.0899,VALID,222.94,VALID,20.1693,VALID,109,VALID,0.680859,
2014-07-29, 07:53:04,VALID,917.726,VALID,0,VALID,87.837,VALID,227.56,VALID,20.3659,VALID,109,VALID,0.893359,
2014-07-29, 07:54:04,VALID,917.72,VALID,0,VALID,86.541,VALID,234.222,VALID,20.5219,VALID,109,VALID,0.961328,
2014-07-29, 07:55:04,VALID,917.738,VALID,0,VALID,85.7482,VALID,246.577,VALID,20.6374,VALID,109,VALID,0.643359,
2014-07-29, 07:56:04,VALID,917.73,VALID,0,VALID,84.7571,VALID,245.61,VALID,20.7154,VALID,137,VALID,1.18008,
2014-07-29, 07:57:04,VALID,917.71,VALID,0,VALID,84.5132,VALID,254.743,VALID,20.8129,VALID,144,VALID,0.603125,
2014-07-29, 07:58:04,VALID,917.743,VALID,0,VALID,82.897,VALID,250.445,VALID,20.891,VALID,146,VALID,0.745703,
2014-07-29, 07:59:04,VALID,917.777,VALID,0,VALID,82.4625,VALID,249.693,VALID,20.9901,VALID,146,VALID,0.815625,
2014-07-29, 08:00:04,VALID,917.802,VALID,0,VALID,82.7293,VALID,240.346,VALID,21.047,VALID,139,VALID,0.822266,
2014-07-29, 08:01:04,VALID,917.803,VALID,0,VALID,82.9809,VALID,249.263,VALID,21.1461,VALID,107,VALID,0.555078,
2014-07-29, 08:02:04,VALID,917.832,VALID,0,VALID,81.9212,VALID,241.098,VALID,21.2421,VALID,123,VALID,0.751953,
2014-07-29, 08:03:04,VALID,917.832,VALID,0,VALID,81.6315,VALID,244.106,VALID,21.2811,VALID,138,VALID,0.700781,
2014-07-29, 08:04:04,VALID,917.802,VALID,0,VALID,82.432,VALID,248.082,VALID,21.3786,VALID,118,VALID,0.841797,
2014-07-29, 08:05:04,VALID,917.795,VALID,0,VALID,82.2719,VALID,247.007,VALID,21.455,VALID,102,VALID,0.301953,
2014-07-29, 08:06:04,VALID,917.771,VALID,0,VALID,81.8602,VALID,253.883,VALID,21.6323,VALID,103,VALID,0.665625,
2014-07-29, 08:07:04,VALID,917.809,VALID,0,VALID,80.9073,VALID,254.098,VALID,21.7298,VALID,90,VALID,1.26367,
2014-07-29, 08:08:04,VALID,917.818,VALID,0,VALID,80.6557,VALID,243.891,VALID,21.7087,VALID,97,VALID,0.933594,
2014-07-29, 08:09:04,VALID,917.887,VALID,0,VALID,80.427,VALID,254.206,VALID,21.7103,VALID,101,VALID,0.521484,
2014-07-29, 08:10:04,VALID,917.912,VALID,0,VALID,80.3356,VALID,257.107,VALID,21.7282,VALID,96,VALID,0.728516,
2014-07-29, 08:11:04,VALID,917.932,VALID,0,VALID,80.8006,VALID,264.95,VALID,21.8079,VALID,85,VALID,0.573828,
2014-07-29, 08:12:04,VALID,917.927,VALID,0,VALID,81.0522,VALID,275.157,VALID,21.964,VALID,85,VALID,0.00195313,
2014-07-29, 08:13:04,VALID,917.954,VALID,0,VALID,81.5172,VALID,276.016,VALID,22.1379,VALID,92,VALID,0.608984,
2014-07-29, 08:14:04,VALID,917.934,VALID,0,VALID,80.4575,VALID,275.801,VALID,22.3152,VALID,104,VALID,0.379297,
2014-07-29, 08:15:04,VALID,917.954,VALID,0,VALID,79.1539,VALID,277.521,VALID,22.5103,VALID,104,VALID,0.347656,
2014-07-29, 08:16:04,VALID,917.954,VALID,0,VALID,78.1705,VALID,291.595,VALID,22.6274,VALID,104,VALID,0.411328,
2014-07-29, 08:17:04,VALID,917.945,VALID,0,VALID,77.9647,VALID,284.182,VALID,22.6274,VALID,104,VALID,0.541016,
2014-07-29, 08:18:04,VALID,917.942,VALID,0,VALID,77.3167,VALID,276.124,VALID,22.6665,VALID,104,VALID,0.573828,
2014-07-29, 08:19:04,VALID,917.968,VALID,0,VALID,77.6979,VALID,292.67,VALID,22.7428,VALID,104,VALID,0.593359,
2014-07-29, 08:20:04,VALID,917.931,VALID,0,VALID,76.7144,VALID,305.885,VALID,22.6843,VALID,106,VALID,1.16523,
2014-07-29, 08:21:04,VALID,917.955,VALID,0,VALID,77.4463,VALID,312.761,VALID,22.5884,VALID,137,VALID,0.649219,
2014-07-29, 08:22:04,VALID,917.987,VALID,0,VALID,78.2162,VALID,318.456,VALID,22.4501,VALID,128,VALID,0.936719,
2014-07-29, 08:23:04,VALID,917.999,VALID,0,VALID,79.1692,VALID,327.91,VALID,22.4501,VALID,74,VALID,1.03203,
2014-07-29, 08:24:04,VALID,918.023,VALID,0,VALID,75.6243,VALID,324.795,VALID,22.4713,VALID,106,VALID,1.34531,
2014-07-29, 08:25:04,VALID,918.014,VALID,0,VALID,76.3561,VALID,306.959,VALID,22.3135,VALID,112,VALID,1.30625,
2014-07-29, 08:26:04,VALID,918.079,VALID,0,VALID,77.9647,VALID,302.125,VALID,22.255,VALID,104,VALID,1.00312,
2014-07-29, 08:27:04,VALID,918.107,VALID,0,VALID,78.445,VALID,304.811,VALID,22.255,VALID,102,VALID,0.635938,
2014-07-29, 08:28:04,VALID,918.153,VALID,0,VALID,79.962,VALID,309.538,VALID,22.3525,VALID,103,VALID,0.516016,
2014-07-29, 08:29:04,VALID,918.152,VALID,0,VALID,77.8275,VALID,294.066,VALID,22.4518,VALID,115,VALID,0.563281,
2014-07-29, 08:30:04,VALID,918.176,VALID,0,VALID,78.1629,VALID,272.793,VALID,22.5281,VALID,115,VALID,0.600391,
2014-07-29, 08:31:04,VALID,918.142,VALID,0,VALID,77.6979,VALID,282.893,VALID,22.6647,VALID,115,VALID,0.194531,
2014-07-29, 08:32:04,VALID,918.168,VALID,0,VALID,76.783,VALID,311.15,VALID,22.7428,VALID,102,VALID,0.433594,
2014-07-29, 08:33:04,VALID,918.16,VALID,0,VALID,77.1871,VALID,313.191,VALID,22.9202,VALID,102,VALID,0.55,
2014-07-29, 08:34:04,VALID,918.189,VALID,0,VALID,75.7463,VALID,318.993,VALID,23.1136,VALID,102,VALID,0.736719,
2014-07-29, 08:35:04,VALID,918.214,VALID,0,VALID,73.7337,VALID,315.447,VALID,23.2502,VALID,102,VALID,0.61875,
2014-07-29, 08:36:04,VALID,918.251,VALID,0,VALID,73.8709,VALID,318.67,VALID,23.3088,VALID,102,VALID,0.0996094,
2014-07-29, 08:37:04,VALID,918.247,VALID,0,VALID,74.0386,VALID,323.29,VALID,23.3674,VALID,102,VALID,0.707422,
2014-07-29, 08:38:04,VALID,918.245,VALID,0,VALID,74.374,VALID,335.754,VALID,23.3869,VALID,26,VALID,0.706641,
2014-07-29, 08:39:04,VALID,918.259,VALID,0,VALID,73.848,VALID,348.754,VALID,23.4259,VALID,27,VALID,0.625,
2014-07-29, 08:40:04,VALID,918.238,VALID,0,VALID,72.6588,VALID,371.102,VALID,23.5235,VALID,33,VALID,0.721875,
2014-07-29, 08:41:04,VALID,918.222,VALID,0,VALID,72.8799,VALID,383.028,VALID,23.5626,VALID,33,VALID,0.817578,
2014-07-29, 08:42:04,VALID,918.247,VALID,0,VALID,72.7808,VALID,402.582,VALID,23.6388,VALID,33,VALID,0.425391,
2014-07-29, 08:43:04,VALID,918.247,VALID,0,VALID,71.9041,VALID,423.748,VALID,23.8554,VALID,33,VALID,0.181641,
2014-07-29, 08:44:04,VALID,918.231,VALID,0,VALID,72.0337,VALID,431.913,VALID,23.8749,VALID,25,VALID,0.219531,
2014-07-29, 08:45:04,VALID,918.27,VALID,0,VALID,71.1646,VALID,430.732,VALID,23.8145,VALID,25,VALID,0.864062,
2014-07-29, 08:46:04,VALID,918.303,VALID,0,VALID,72.5368,VALID,410.64,VALID,23.6388,VALID,25,VALID,0.602734,
2014-07-29, 08:47:04,VALID,918.315,VALID,0,VALID,72.6893,VALID,361.325,VALID,23.3851,VALID,25,VALID,0.869922,
2014-07-29, 08:48:04,VALID,918.37,VALID,0,VALID,73.8861,VALID,400.648,VALID,23.1119,VALID,25,VALID,0.813672,
2014-07-29, 08:49:04,VALID,918.354,VALID,0,VALID,75.4794,VALID,395.706,VALID,22.9167,VALID,24,VALID,0.686328,
2014-07-29, 08:50:04,VALID,918.361,VALID,0,VALID,75.8073,VALID,389.152,VALID,22.8174,VALID,25,VALID,0.733594,
2014-07-29, 08:51:04,VALID,918.355,VALID,0,VALID,75.8225,VALID,391.193,VALID,22.8404,VALID,25,VALID,0.563672,
2014-07-29, 08:52:04,VALID,918.372,VALID,0,VALID,76.3333,VALID,398.929,VALID,22.8387,VALID,25,VALID,0.257422,
2014-07-29, 08:53:04,VALID,918.372,VALID,0,VALID,76.6001,VALID,407.739,VALID,22.9557,VALID,25,VALID,0.114063,
2014-07-29, 08:54:04,VALID,918.365,VALID,0,VALID,75.2507,VALID,435.029,VALID,23.2307,VALID,25,VALID,0.0878906,
2014-07-29, 08:55:04,VALID,918.367,VALID,0,VALID,73.2229,VALID,439.112,VALID,23.4437,VALID,24,VALID,0.378906,
2014-07-29, 08:56:04,VALID,918.463,VALID,0,VALID,72.5216,VALID,470.592,VALID,23.5626,VALID,25,VALID,0.488672,
2014-07-29, 08:57:04,VALID,918.461,VALID,0,VALID,71.8888,VALID,474.89,VALID,23.6211,VALID,25,VALID,0.750781,
2014-07-29, 08:58:04,VALID,918.489,VALID,0,VALID,72.674,VALID,476.287,VALID,23.7382,VALID,25,VALID,0.374219,
2014-07-29, 08:59:04,VALID,918.473,VALID,0,VALID,72.2395,VALID,471.022,VALID,23.9725,VALID,24,VALID,0.461328,
2014-07-29, 09:00:04,VALID,918.511,VALID,0,VALID,72.0108,VALID,460.493,VALID,24.0896,VALID,25,VALID,0.522266,
2014-07-29, 09:01:04,VALID,918.519,VALID,0,VALID,69.9067,VALID,428.475,VALID,24.2635,VALID,25,VALID,0.687891,
2014-07-29, 09:02:04,VALID,918.52,VALID,0,VALID,67.1318,VALID,413.111,VALID,24.283,VALID,25,VALID,0.377734,
2014-07-29, 09:03:04,VALID,918.484,VALID,0,VALID,66.4686,VALID,431.376,VALID,24.4569,VALID,25,VALID,0,
2014-07-29, 09:04:04,VALID,918.496,VALID,0,VALID,65.4242,VALID,429.013,VALID,24.654,VALID,25,VALID,0,
2014-07-29, 09:05:04,VALID,918.506,VALID,0,VALID,65.1192,VALID,414.293,VALID,25.025,VALID,25,VALID,0.267969,
2014-07-29, 09:06:04,VALID,918.483,VALID,0,VALID,64.7457,VALID,404.194,VALID,25.2007,VALID,25,VALID,0.539844,
2014-07-29, 09:07:04,VALID,918.453,VALID,0,VALID,63.8385,VALID,428.26,VALID,25.2593,VALID,32,VALID,1.08438,
2014-07-29, 09:08:04,VALID,918.463,VALID,0,VALID,65.508,VALID,431.054,VALID,25.3179,VALID,24,VALID,0.637109,
2014-07-29, 09:09:04,VALID,918.462,VALID,0,VALID,64.7457,VALID,449.641,VALID,25.3765,VALID,24,VALID,0.518359,
2014-07-29, 09:10:04,VALID,918.469,VALID,0,VALID,65.2641,VALID,449.211,VALID,25.1812,VALID,24,VALID,1.10273,
2014-07-29, 09:11:04,VALID,918.488,VALID,0,VALID,66.4457,VALID,438.575,VALID,24.9059,VALID,24,VALID,0.805859,
2014-07-29, 09:12:04,VALID,918.503,VALID,0,VALID,65.4242,VALID,435.244,VALID,24.8883,VALID,24,VALID,0.939453,
2014-07-29, 09:13:04,VALID,918.49,VALID,0,VALID,64.334,VALID,429.227,VALID,25.0445,VALID,24,VALID,0.8375,
2014-07-29, 09:14:04,VALID,918.437,VALID,0,VALID,63.869,VALID,421.384,VALID,25.1422,VALID,24,VALID,0.475391,
2014-07-29, 09:15:04,VALID,918.414,VALID,0,VALID,62.5501,VALID,444.269,VALID,25.1579,VALID,24,VALID,0.815234,
2014-07-29, 09:16:04,VALID,918.422,VALID,0,VALID,60.7434,VALID,448.352,VALID,25.357,VALID,24,VALID,0.096875,
2014-07-29, 09:17:04,VALID,918.394,VALID,0,VALID,61.9174,VALID,481.014,VALID,25.5503,VALID,24,VALID,0.551172,
2014-07-29, 09:18:04,VALID,918.401,VALID,0,VALID,59.9048,VALID,473.493,VALID,25.648,VALID,24,VALID,0.640625,
2014-07-29, 09:19:04,VALID,918.415,VALID,0,VALID,60.0649,VALID,510.668,VALID,25.7261,VALID,24,VALID,0.255859,
2014-07-29, 09:20:04,VALID,918.425,VALID,0,VALID,59.92,VALID,514.106,VALID,25.8237,VALID,24,VALID,0.607813,
2014-07-29, 09:21:04,VALID,918.383,VALID,0,VALID,58.9747,VALID,526.784,VALID,25.6304,VALID,24,VALID,0.409766,
2014-07-29, 09:22:04,VALID,918.366,VALID,0,VALID,59.0815,VALID,535.916,VALID,25.4741,VALID,24,VALID,0.932031,
2014-07-29, 09:23:04,VALID,918.363,VALID,0,VALID,60.4537,VALID,535.379,VALID,25.2398,VALID,24,VALID,0.683203,
2014-07-29, 09:24:04,VALID,918.396,VALID,0,VALID,60.6748,VALID,504.006,VALID,25.2593,VALID,24,VALID,0.697266,
2014-07-29, 09:25:04,VALID,918.364,VALID,0,VALID,60.6367,VALID,486.279,VALID,25.396,VALID,24,VALID,0.135547,
2014-07-29, 09:26:04,VALID,918.378,VALID,0,VALID,60.9035,VALID,537.313,VALID,25.5698,VALID,24,VALID,0.604688,
2014-07-29, 09:27:04,VALID,918.367,VALID,0,VALID,60.4461,VALID,556.545,VALID,25.728,VALID,24,VALID,0.902344,
2014-07-29, 09:28:04,VALID,918.395,VALID,0,VALID,60.4079,VALID,558.801,VALID,25.7495,VALID,25,VALID,0,
2014-07-29, 09:29:04,VALID,918.396,VALID,0,VALID,60.5604,VALID,554.611,VALID,25.8843,VALID,25,VALID,0.407031,
2014-07-29, 09:30:04,VALID,918.398,VALID,0,VALID,60.1411,VALID,581.042,VALID,26.0406,VALID,24,VALID,0.397656,
2014-07-29, 09:31:04,VALID,918.418,VALID,0,VALID,58.8985,VALID,565.893,VALID,26.0796,VALID,24,VALID,0.730078,
2014-07-29, 09:32:04,VALID,918.404,VALID,0,VALID,59.394,VALID,560.735,VALID,26.0015,VALID,24,VALID,0.344531,
2014-07-29, 09:33:04,VALID,918.406,VALID,0,VALID,59.051,VALID,553.429,VALID,25.982,VALID,25,VALID,0.928125,
2014-07-29, 09:34:04,VALID,918.34,VALID,0,VALID,59.9353,VALID,550.528,VALID,25.689,VALID,24,VALID,0.35625,
2014-07-29, 09:35:04,VALID,918.339,VALID,0,VALID,60.1869,VALID,538.71,VALID,25.6499,VALID,24,VALID,0.646875,
2014-07-29, 09:36:04,VALID,918.312,VALID,0,VALID,61.582,VALID,523.131,VALID,25.5913,VALID,24,VALID,1.14219,
2014-07-29, 09:37:04,VALID,918.299,VALID,0,VALID,62.8093,VALID,489.824,VALID,25.5913,VALID,24,VALID,0.757422,
2014-07-29, 09:38:04,VALID,918.316,VALID,0,VALID,61.4219,VALID,493.047,VALID,25.5523,VALID,24,VALID,1.22734,
2014-07-29, 09:39:04,VALID,918.288,VALID,0,VALID,62.6187,VALID,508.197,VALID,25.3355,VALID,24,VALID,0.419141,
2014-07-29, 09:40:04,VALID,918.288,VALID,0,VALID,63.3125,VALID,514.321,VALID,25.4331,VALID,24,VALID,0.428906,
2014-07-29, 09:41:04,VALID,918.253,VALID,0,VALID,61.8564,VALID,529.577,VALID,25.5894,VALID,25,VALID,0.751172,
2014-07-29, 09:42:04,VALID,918.229,VALID,0,VALID,61.1017,VALID,487.138,VALID,25.6109,VALID,24,VALID,1.02188,
2014-07-29, 09:43:04,VALID,918.216,VALID,0,VALID,63.038,VALID,509.701,VALID,25.5113,VALID,24,VALID,0.354297,
2014-07-29, 09:44:04,VALID,918.211,VALID,0,VALID,61.9326,VALID,529.363,VALID,25.4722,VALID,24,VALID,1.10312,
2014-07-29, 09:45:04,VALID,918.222,VALID,0,VALID,62.1918,VALID,496.915,VALID,25.3746,VALID,24,VALID,0.464844,
2014-07-29, 09:46:04,VALID,918.211,VALID,0,VALID,63.8842,VALID,526.032,VALID,25.316,VALID,24,VALID,0.554688,
2014-07-29, 09:47:04,VALID,918.224,VALID,0,VALID,62.8398,VALID,538.925,VALID,25.355,VALID,24,VALID,1.05508,
2014-07-29, 09:48:04,VALID,918.245,VALID,0,VALID,62.6187,VALID,522.057,VALID,25.2965,VALID,24,VALID,0.812891,
2014-07-29, 09:49:04,VALID,918.212,VALID,0,VALID,62.6416,VALID,581.042,VALID,25.2379,VALID,24,VALID,0.449219,
2014-07-29, 09:50:04,VALID,918.221,VALID,0,VALID,62.1156,VALID,547.735,VALID,25.3941,VALID,24,VALID,0.261719,
2014-07-29, 09:51:04,VALID,918.224,VALID,0,VALID,63.2591,VALID,511.098,VALID,25.6284,VALID,25,VALID,0.671875,
2014-07-29, 09:52:04,VALID,918.252,VALID,0,VALID,62.9465,VALID,522.379,VALID,25.5698,VALID,24,VALID,0.883203,
2014-07-29, 09:53:04,VALID,918.257,VALID,0,VALID,61.9174,VALID,494.659,VALID,25.4527,VALID,24,VALID,0.385156,
2014-07-29, 09:54:04,VALID,918.287,VALID,0,VALID,61.5667,VALID,527.643,VALID,25.3922,VALID,24,VALID,1.01367,
2014-07-29, 09:55:04,VALID,918.28,VALID,0,VALID,62.4282,VALID,510.883,VALID,25.3746,VALID,24,VALID,1.27734,
2014-07-29, 09:56:04,VALID,918.275,VALID,0,VALID,63.3125,VALID,532.801,VALID,25.1969,VALID,24,VALID,0.207031,
2014-07-29, 09:57:04,VALID,918.255,VALID,0,VALID,63.7089,VALID,530.437,VALID,25.1793,VALID,24,VALID,0.488281,
2014-07-29, 09:58:04,VALID,918.243,VALID,0,VALID,63.2057,VALID,519.478,VALID,25.2574,VALID,24,VALID,0.703125,
2014-07-29, 09:59:04,VALID,918.216,VALID,0,VALID,63.2972,VALID,543.437,VALID,25.4527,VALID,25,VALID,0.228516,
2014-07-29, 10:00:04,VALID,918.233,VALID,0,VALID,62.3748,VALID,594.687,VALID,25.5113,VALID,25,VALID,0.856641,
2014-07-29, 10:01:04,VALID,918.243,VALID,0,VALID,63.4421,VALID,528.718,VALID,25.4722,VALID,24,VALID,0.708203,
2014-07-29, 10:02:04,VALID,918.234,VALID,0,VALID,63.4116,VALID,633.366,VALID,25.5308,VALID,24,VALID,0.791797,
2014-07-29, 10:03:04,VALID,918.272,VALID,0,VALID,62.2452,VALID,644.754,VALID,25.6284,VALID,24,VALID,0.644922,
2014-07-29, 10:04:04,VALID,918.276,VALID,0,VALID,62.9313,VALID,647.978,VALID,25.8237,VALID,24,VALID,0.557422,
2014-07-29, 10:05:04,VALID,918.242,VALID,0,VALID,61.1779,VALID,651.093,VALID,25.9604,VALID,25,VALID,1.13789,
2014-07-29, 10:06:04,VALID,918.238,VALID,0,VALID,59.051,VALID,660.656,VALID,25.9038,VALID,24,VALID,0.0734375,
2014-07-29, 10:07:04,VALID,918.234,VALID,0,VALID,59.051,VALID,651.416,VALID,25.8999,VALID,24,VALID,1.76016,
2014-07-29, 10:08:04,VALID,918.245,VALID,0,VALID,61.1398,VALID,663.342,VALID,25.7261,VALID,1,VALID,0.875391,
2014-07-29, 10:09:04,VALID,918.216,VALID,0,VALID,59.9505,VALID,668.391,VALID,25.6265,VALID,255,VALID,1.26484,
2014-07-29, 10:10:04,VALID,918.185,VALID,0,VALID,60.1411,VALID,618.431,VALID,25.6089,VALID,234,VALID,0.876562,
2014-07-29, 10:11:04,VALID,918.144,VALID,0,VALID,61.0331,VALID,593.72,VALID,25.6265,VALID,235,VALID,0.670703,
2014-07-29, 10:12:04,VALID,918.114,VALID,0,VALID,61.1398,VALID,601.456,VALID,25.7632,VALID,194,VALID,0.744922,
2014-07-29, 10:13:04,VALID,918.097,VALID,0,VALID,59.3254,VALID,626.167,VALID,25.8804,VALID,214,VALID,1.20391,
2014-07-29, 10:14:04,VALID,918.083,VALID,0,VALID,60.3393,VALID,632.399,VALID,26.0776,VALID,194,VALID,0.363281,
2014-07-29, 10:15:04,VALID,918.091,VALID,0,VALID,58.1819,VALID,614.456,VALID,26.312,VALID,246,VALID,0.822266,
2014-07-29, 10:16:04,VALID,918.105,VALID,0,VALID,56.5353,VALID,618.969,VALID,26.3686,VALID,231,VALID,0.750781,
2014-07-29, 10:17:04,VALID,918.125,VALID,0,VALID,56.0855,VALID,625.307,VALID,26.564,VALID,221,VALID,0.0808594,
2014-07-29, 10:18:04,VALID,918.151,VALID,0,VALID,58.3496,VALID,629.713,VALID,26.8199,VALID,226,VALID,0.805859,
2014-07-29, 10:19:04,VALID,918.201,VALID,0,VALID,56.1922,VALID,641.209,VALID,26.6421,VALID,268,VALID,1.28398,
2014-07-29, 10:20:04,VALID,918.182,VALID,0,VALID,54.3168,VALID,632.936,VALID,26.2905,VALID,256,VALID,1.10664,
2014-07-29, 10:21:04,VALID,918.177,VALID,0,VALID,56.2913,VALID,630.68,VALID,26.1753,VALID,250,VALID,1.01133,
2014-07-29, 10:22:04,VALID,918.139,VALID,0,VALID,55.5747,VALID,651.308,VALID,26.1342,VALID,259,VALID,1.08477,
2014-07-29, 10:23:04,VALID,918.14,VALID,0,VALID,54.7361,VALID,662.052,VALID,26.0581,VALID,257,VALID,0.658594,
2014-07-29, 10:24:04,VALID,918.171,VALID,0,VALID,56.1312,VALID,650.556,VALID,26.1558,VALID,354,VALID,1.35234,
2014-07-29, 10:25:04,VALID,918.181,VALID,0,VALID,56.1846,VALID,670.863,VALID,26.2124,VALID,314,VALID,1.03789,
2014-07-29, 10:26:04,VALID,918.223,VALID,0,VALID,56.581,VALID,688.483,VALID,26.31,VALID,317,VALID,0.828906,
2014-07-29, 10:27:04,VALID,918.199,VALID,0,VALID,55.7272,VALID,691.706,VALID,26.3491,VALID,276,VALID,0.819531,